Time,TemperatureF,DewpointF,PressureIn,WindDirection,WindDirectionDegrees,WindSpeedMPH,WindSpeedGustMPH,Humidity,HourlyPrecipIn,Conditions,Clouds,dailyrainin,SoftwareType,DateUTC
2013-08-13 00:01:00,64.2,63.0,29.92,NNW,335,0.0,0.0,96,0.00,,,0.00,oem by Ross Wheeler,2013-08-13 04:01:00,
2013-08-13 00:05:00,64.1,63.0,29.92,NNW,335,0.0,0.0,96,0.00,,,0.00,oem by Ross Wheeler,2013-08-13 04:05:00,
2013-08-13 00:11:00,64.0,63.0,29.92,NNW,334,0.0,0.0,96,0.00,,,0.00,oem by Ross Wheeler,2013-08-13 04:11:00,
2013-08-13 00:16:00,64.0,63.0,29.92,NNW,334,0.0,0.0,96,0.00,,,0.00,oem by Ross Wheeler,2013-08-13 04:16:00,
2013-08-13 00:21:00,64.0,63.0,29.92,WNW,290,0.0,1.0,96,0.00,,,0.00,oem by Ross Wheeler,2013-08-13 04:21:00,
2013-08-13 00:26:00,64.1,63.0,29.92,WNW,290,0.0,1.0,96,0.00,,,0.00,oem by Ross Wheeler,2013-08-13 04:26:00,
2013-08-13 00:31:00,64.3,64.0,29.92,WNW,290,0.0,1.0,97,0.00,,,0.00,oem by Ross Wheeler,2013-08-13 04:31:00,
2013-08-13 00:41:00,64.5,64.0,29.92,WNW,290,0.0,0.0,97,0.00,,,0.00,oem by Ross Wheeler,2013-08-13 04:41:00,
2013-08-13 00:46:00,64.6,64.0,29.91,WNW,290,0.0,0.0,97,0.00,,,0.00,oem by Ross Wheeler,2013-08-13 04:46:00,
2013-08-13 00:55:00,64.9,64.0,29.91,NW,317,0.0,0.0,97,0.00,,,0.00,oem by Ross Wheeler,2013-08-13 04:55:00,
2013-08-13 00:58:00,65.0,64.0,29.91,NW,319,0.0,0.0,97,0.00,,,0.00,weatherlink.com 1.10,2013-08-13 04:58:00,
2013-08-13 01:06:00,65.1,64.0,29.91,West,264,0.0,1.0,97,0.00,,,0.00,oem by Ross Wheeler,2013-08-13 05:06:00,
2013-08-13 01:11:00,65.2,64.0,29.91,West,264,0.0,1.0,97,0.00,,,0.00,oem by Ross Wheeler,2013-08-13 05:11:00,
2013-08-13 01:16:00,65.4,65.0,29.91,West,264,0.0,0.0,97,0.00,,,0.00,oem by Ross Wheeler,2013-08-13 05:16:00,
2013-08-13 01:25:00,65.7,65.0,29.90,West,264,0.0,0.0,97,0.00,,,0.00,oem by Ross Wheeler,2013-08-13 05:25:00,
2013-08-13 01:31:00,65.8,65.0,29.90,West,264,0.0,0.0,97,0.00,,,0.00,oem by Ross Wheeler,2013-08-13 05:31:00,
2013-08-13 01:40:00,66.0,65.0,29.90,West,264,0.0,0.0,97,0.00,,,0.00,oem by Ross Wheeler,2013-08-13 05:40:00,
2013-08-13 01:46:00,66.0,65.0,29.90,West,264,0.0,1.0,97,0.00,,,0.00,oem by Ross Wheeler,2013-08-13 05:46:00,
2013-08-13 01:55:00,66.0,65.0,29.90,West,264,0.0,0.0,97,0.00,,,0.00,oem by Ross Wheeler,2013-08-13 05:55:00,
2013-08-13 02:01:00,66.0,65.0,29.90,West,264,0.0,0.0,97,0.00,,,0.00,oem by Ross Wheeler,2013-08-13 06:01:00,
2013-08-13 02:10:00,66.1,65.0,29.89,West,264,0.0,0.0,97,0.00,,,0.00,oem by Ross Wheeler,2013-08-13 06:10:00,
2013-08-13 02:16:00,66.2,65.0,29.89,West,264,0.0,0.0,97,0.00,,,0.00,oem by Ross Wheeler,2013-08-13 06:16:00,
2013-08-13 02:25:00,66.2,65.0,29.89,West,264,0.0,0.0,97,0.00,,,0.00,oem by Ross Wheeler,2013-08-13 06:25:00,
2013-08-13 02:31:00,66.2,65.0,29.88,West,264,0.0,0.0,97,0.00,,,0.00,oem by Ross Wheeler,2013-08-13 06:31:00,
2013-08-13 02:40:00,66.0,65.0,29.88,West,264,0.0,0.0,97,0.00,,,0.00,oem by Ross Wheeler,2013-08-13 06:40:00,
2013-08-13 02:46:00,65.9,65.0,29.88,West,264,0.0,0.0,97,0.00,,,0.00,oem by Ross Wheeler,2013-08-13 06:46:00,
2013-08-13 02:56:00,65.6,65.0,29.88,West,264,0.0,0.0,97,0.00,,,0.00,oem by Ross Wheeler,2013-08-13 06:56:00,
2013-08-13 03:05:00,65.4,65.0,29.88,West,264,0.0,0.0,97,0.00,,,0.00,oem by Ross Wheeler,2013-08-13 07:05:00,
2013-08-13 03:10:00,65.3,65.0,29.88,West,264,0.0,0.0,97,0.00,,,0.00,oem by Ross Wheeler,2013-08-13 07:10:00,
2013-08-13 03:16:00,65.2,64.0,29.88,West,264,0.0,0.0,97,0.00,,,0.00,oem by Ross Wheeler,2013-08-13 07:16:00,
2013-08-13 03:25:00,65.1,64.0,29.88,West,264,0.0,0.0,97,0.00,,,0.00,oem by Ross Wheeler,2013-08-13 07:25:00,
2013-08-13 03:31:00,65.1,64.0,29.87,West,264,0.0,0.0,97,0.00,,,0.00,oem by Ross Wheeler,2013-08-13 07:31:00,
2013-08-13 03:40:00,65.1,65.0,29.86,West,264,0.0,0.0,98,0.00,,,0.00,oem by Ross Wheeler,2013-08-13 07:40:00,
2013-08-13 03:46:00,65.3,65.0,29.87,West,264,0.0,0.0,98,0.00,,,0.00,oem by Ross Wheeler,2013-08-13 07:46:00,
2013-08-13 03:55:00,65.3,65.0,29.86,West,264,0.0,0.0,98,0.00,,,0.00,oem by Ross Wheeler,2013-08-13 07:55:00,
2013-08-13 04:01:00,65.4,65.0,29.86,West,264,0.0,0.0,98,0.00,,,0.00,oem by Ross Wheeler,2013-08-13 08:01:00,
2013-08-13 04:10:00,65.6,65.0,29.86,West,264,0.0,0.0,98,0.00,,,0.00,oem by Ross Wheeler,2013-08-13 08:10:00,
2013-08-13 04:16:00,65.8,65.0,29.86,West,264,0.0,0.0,98,0.00,,,0.00,oem by Ross Wheeler,2013-08-13 08:16:00,
2013-08-13 04:25:00,66.0,66.0,29.86,West,264,0.0,0.0,98,0.00,,,0.00,oem by Ross Wheeler,2013-08-13 08:25:00,
2013-08-13 04:31:00,66.1,66.0,29.86,West,264,0.0,0.0,98,0.00,,,0.00,oem by Ross Wheeler,2013-08-13 08:31:00,
2013-08-13 04:40:00,66.3,66.0,29.85,West,264,0.0,0.0,98,0.00,,,0.00,oem by Ross Wheeler,2013-08-13 08:40:00,
2013-08-13 04:46:00,66.7,66.0,29.85,West,266,0.0,1.0,98,0.00,,,0.00,oem by Ross Wheeler,2013-08-13 08:46:00,
2013-08-13 04:55:00,67.1,67.0,29.86,West,266,0.0,0.0,98,0.00,,,0.00,oem by Ross Wheeler,2013-08-13 08:55:00,
2013-08-13 05:01:00,67.2,67.0,29.86,West,266,0.0,0.0,98,0.00,,,0.00,oem by Ross Wheeler,2013-08-13 09:01:00,
2013-08-13 05:10:00,67.3,67.0,29.85,West,266,0.0,0.0,98,0.00,,,0.00,oem by Ross Wheeler,2013-08-13 09:10:00,
2013-08-13 05:16:00,67.3,67.0,29.85,West,266,0.0,0.0,98,0.00,,,0.00,oem by Ross Wheeler,2013-08-13 09:16:00,
2013-08-13 05:25:00,67.3,67.0,29.85,West,266,0.0,0.0,98,0.00,,,0.00,oem by Ross Wheeler,2013-08-13 09:25:00,
2013-08-13 05:31:00,67.3,67.0,29.85,West,266,0.0,0.0,98,0.00,,,0.00,oem by Ross Wheeler,2013-08-13 09:31:00,
2013-08-13 05:40:00,67.3,67.0,29.85,West,266,0.0,0.0,98,0.00,,,0.00,oem by Ross Wheeler,2013-08-13 09:40:00,
2013-08-13 05:46:00,67.3,67.0,29.85,WNW,297,0.0,0.0,98,0.00,,,0.00,oem by Ross Wheeler,2013-08-13 09:46:00,
2013-08-13 05:55:00,67.4,67.0,29.85,NE,46,0.0,0.0,98,0.00,,,0.00,oem by Ross Wheeler,2013-08-13 09:55:00,
2013-08-13 06:01:00,67.4,67.0,29.85,NE,47,0.0,1.0,98,0.00,,,0.00,oem by Ross Wheeler,2013-08-13 10:01:00,
2013-08-13 06:10:00,67.5,67.0,29.85,NE,47,0.0,0.0,98,0.00,,,0.00,oem by Ross Wheeler,2013-08-13 10:10:00,
2013-08-13 06:16:00,67.6,67.0,29.85,NE,47,0.0,0.0,98,0.00,,,0.00,oem by Ross Wheeler,2013-08-13 10:16:00,
2013-08-13 06:25:00,67.7,67.0,29.85,NE,47,0.0,0.0,98,0.00,,,0.00,oem by Ross Wheeler,2013-08-13 10:25:00,
2013-08-13 06:31:00,67.8,67.0,29.85,NE,46,0.0,0.0,98,0.00,,,0.00,oem by Ross Wheeler,2013-08-13 10:31:00,
2013-08-13 06:40:00,67.9,67.0,29.85,NE,47,0.0,0.0,98,0.00,,,0.00,oem by Ross Wheeler,2013-08-13 10:40:00,
2013-08-13 06:46:00,67.9,67.0,29.85,NE,46,0.0,0.0,98,0.00,,,0.00,oem by Ross Wheeler,2013-08-13 10:46:00,
2013-08-13 06:55:00,67.7,67.0,29.85,NE,47,0.0,1.0,98,0.00,,,0.00,oem by Ross Wheeler,2013-08-13 10:55:00,
2013-08-13 07:01:00,67.7,67.0,29.85,NE,47,0.0,0.0,98,0.00,,,0.00,oem by Ross Wheeler,2013-08-13 11:01:00,
2013-08-13 07:10:00,67.5,67.0,29.84,NE,50,0.0,0.0,98,0.00,,,0.00,oem by Ross Wheeler,2013-08-13 11:10:00,
2013-08-13 07:16:00,67.6,67.0,29.84,NE,49,0.0,1.0,98,0.00,,,0.00,oem by Ross Wheeler,2013-08-13 11:16:00,
2013-08-13 07:25:00,67.6,67.0,29.84,NE,50,0.0,0.0,98,0.00,,,0.00,oem by Ross Wheeler,2013-08-13 11:25:00,
2013-08-13 07:31:00,67.5,67.0,29.84,NE,49,0.0,0.0,98,0.00,,,0.00,oem by Ross Wheeler,2013-08-13 11:31:00,
2013-08-13 07:40:00,67.4,67.0,29.84,ENE,57,1.0,2.0,98,0.00,,,0.00,oem by Ross Wheeler,2013-08-13 11:40:00,
2013-08-13 07:46:00,67.2,67.0,29.84,ENE,63,0.0,3.0,98,0.00,,,0.00,oem by Ross Wheeler,2013-08-13 11:46:00,
2013-08-13 07:55:00,67.2,67.0,29.84,ENE,78,0.0,1.0,98,0.00,,,0.00,oem by Ross Wheeler,2013-08-13 11:55:00,
2013-08-13 08:01:00,67.2,67.0,29.83,ENE,78,0.0,0.0,98,0.00,,,0.00,oem by Ross Wheeler,2013-08-13 12:01:00,
2013-08-13 08:10:00,67.4,67.0,29.83,ENE,76,0.0,1.0,98,0.00,,,0.00,oem by Ross Wheeler,2013-08-13 12:10:00,
2013-08-13 08:16:00,67.4,67.0,29.83,ENE,76,0.0,1.0,98,0.00,,,0.00,oem by Ross Wheeler,2013-08-13 12:16:00,
2013-08-13 08:25:00,67.5,67.0,29.83,ENE,76,0.0,0.0,98,0.00,,,0.00,oem by Ross Wheeler,2013-08-13 12:25:00,
2013-08-13 08:31:00,67.6,67.0,29.82,ENE,76,0.0,1.0,98,0.00,,,0.00,oem by Ross Wheeler,2013-08-13 12:31:00,
2013-08-13 08:40:00,67.5,67.0,29.82,ENE,68,1.0,3.0,98,0.00,,,0.00,oem by Ross Wheeler,2013-08-13 12:40:00,
2013-08-13 08:46:00,67.6,67.0,29.82,ENE,73,0.0,3.0,98,0.00,,,0.00,oem by Ross Wheeler,2013-08-13 12:46:00,
2013-08-13 08:56:00,67.8,67.0,29.82,ENE,74,0.0,0.0,98,0.00,,,0.00,oem by Ross Wheeler,2013-08-13 12:56:00,
2013-08-13 09:01:00,67.9,67.0,29.83,ENE,73,0.0,0.0,98,0.00,,,0.00,oem by Ross Wheeler,2013-08-13 13:01:00,
2013-08-13 09:11:00,67.8,67.0,29.83,ENE,72,0.0,1.0,98,0.00,,,0.00,oem by Ross Wheeler,2013-08-13 13:11:00,
2013-08-13 09:16:00,67.9,67.0,29.83,ENE,72,0.0,1.0,98,0.00,,,0.00,oem by Ross Wheeler,2013-08-13 13:16:00,
2013-08-13 09:25:00,68.1,68.0,29.83,ENE,72,0.0,0.0,98,0.00,,,0.00,oem by Ross Wheeler,2013-08-13 13:25:00,
2013-08-13 09:31:00,68.2,68.0,29.83,ENE,72,0.0,0.0,98,0.00,,,0.00,oem by Ross Wheeler,2013-08-13 13:31:00,
2013-08-13 09:40:00,68.2,68.0,29.83,ENE,72,0.0,1.0,98,0.00,,,0.00,oem by Ross Wheeler,2013-08-13 13:40:00,
2013-08-13 09:46:00,68.3,68.0,29.83,ENE,72,0.0,0.0,98,0.00,,,0.00,oem by Ross Wheeler,2013-08-13 13:46:00,
2013-08-13 09:55:00,68.5,68.0,29.83,ENE,72,0.0,0.0,98,0.01,,,0.01,oem by Ross Wheeler,2013-08-13 13:55:00,
2013-08-13 10:01:00,68.7,68.0,29.83,ENE,72,0.0,0.0,98,0.01,,,0.01,oem by Ross Wheeler,2013-08-13 14:01:00,
2013-08-13 10:11:00,69.0,69.0,29.83,ENE,72,0.0,0.0,98,0.01,,,0.01,oem by Ross Wheeler,2013-08-13 14:11:00,
2013-08-13 10:16:00,69.1,69.0,29.83,ENE,72,0.0,0.0,98,0.01,,,0.01,oem by Ross Wheeler,2013-08-13 14:16:00,
2013-08-13 10:25:00,69.2,69.0,29.83,ENE,72,0.0,0.0,98,0.02,,,0.02,oem by Ross Wheeler,2013-08-13 14:25:00,
2013-08-13 10:31:00,69.2,69.0,29.83,ENE,72,0.0,0.0,98,0.02,,,0.02,oem by Ross Wheeler,2013-08-13 14:31:00,
2013-08-13 10:40:00,69.2,69.0,29.82,ENE,72,0.0,1.0,98,0.02,,,0.02,oem by Ross Wheeler,2013-08-13 14:40:00,
2013-08-13 10:46:00,69.3,69.0,29.82,ENE,72,0.0,1.0,98,0.02,,,0.02,oem by Ross Wheeler,2013-08-13 14:46:00,
2013-08-13 10:55:00,69.1,69.0,29.82,ENE,72,0.0,1.0,98,0.01,,,0.02,oem by Ross Wheeler,2013-08-13 14:55:00,
2013-08-13 11:01:00,69.1,69.0,29.82,ENE,75,0.0,1.0,98,0.01,,,0.02,oem by Ross Wheeler,2013-08-13 15:01:00,
2013-08-13 11:11:00,69.1,69.0,29.82,ENE,75,0.0,0.0,98,0.02,,,0.03,oem by Ross Wheeler,2013-08-13 15:11:00,
2013-08-13 11:16:00,69.1,69.0,29.82,ENE,75,0.0,0.0,98,0.02,,,0.03,oem by Ross Wheeler,2013-08-13 15:16:00,
2013-08-13 11:25:00,69.1,69.0,29.82,ENE,74,0.0,0.0,98,0.02,,,0.04,oem by Ross Wheeler,2013-08-13 15:25:00,
2013-08-13 11:31:00,69.1,69.0,29.81,ENE,73,0.0,0.0,98,0.02,,,0.04,oem by Ross Wheeler,2013-08-13 15:31:00,
2013-08-13 11:40:00,69.1,69.0,29.81,East,94,0.0,0.0,98,0.03,,,0.05,oem by Ross Wheeler,2013-08-13 15:40:00,
2013-08-13 11:46:00,69.1,69.0,29.80,ENE,72,3.0,3.0,98,0.03,,,0.05,oem by Ross Wheeler,2013-08-13 15:46:00,
2013-08-13 11:55:00,69.1,69.0,29.80,East,88,0.0,3.0,98,0.04,,,0.06,oem by Ross Wheeler,2013-08-13 15:55:00,
2013-08-13 12:01:00,69.0,69.0,29.80,East,92,0.0,4.0,98,0.04,,,0.06,oem by Ross Wheeler,2013-08-13 16:01:00,
2013-08-13 12:10:00,68.9,68.0,29.81,East,94,0.0,1.0,98,0.04,,,0.07,oem by Ross Wheeler,2013-08-13 16:10:00,
2013-08-13 12:16:00,68.9,68.0,29.81,East,84,0.0,1.0,98,0.05,,,0.08,oem by Ross Wheeler,2013-08-13 16:16:00,
2013-08-13 12:25:00,68.6,68.0,29.79,ESE,110,0.0,2.0,98,0.05,,,0.09,oem by Ross Wheeler,2013-08-13 16:25:00,
2013-08-13 12:31:00,68.6,68.0,29.79,ENE,77,0.0,5.0,98,0.06,,,0.10,oem by Ross Wheeler,2013-08-13 16:31:00,
2013-08-13 12:40:00,68.4,68.0,29.78,East,98,0.0,4.0,98,0.06,,,0.11,oem by Ross Wheeler,2013-08-13 16:40:00,
2013-08-13 12:46:00,68.4,68.0,29.77,East,101,1.0,3.0,98,0.07,,,0.12,oem by Ross Wheeler,2013-08-13 16:46:00,
2013-08-13 12:56:00,68.3,68.0,29.77,East,101,0.0,4.0,98,0.07,,,0.13,oem by Ross Wheeler,2013-08-13 16:56:00,
2013-08-13 13:01:00,68.3,68.0,29.78,ESE,102,0.0,3.0,98,0.08,,,0.14,oem by Ross Wheeler,2013-08-13 17:01:00,
2013-08-13 13:13:00,68.3,68.0,29.76,ESE,105,1.0,3.0,98,0.11,,,0.18,oem by Ross Wheeler,2013-08-13 17:13:00,
2013-08-13 13:21:00,68.3,68.0,29.75,East,84,3.0,3.0,98,0.11,,,0.19,oem by Ross Wheeler,2013-08-13 17:21:00,
2013-08-13 13:26:00,68.1,68.0,29.73,ESE,107,1.0,5.0,98,0.10,,,0.19,oem by Ross Wheeler,2013-08-13 17:26:00,
2013-08-13 13:31:00,67.3,67.0,29.73,ESE,110,0.0,5.0,97,0.09,,,0.19,oem by Ross Wheeler,2013-08-13 17:31:00,
2013-08-13 13:40:00,66.8,66.0,29.73,NNE,31,0.0,5.0,98,0.08,,,0.19,oem by Ross Wheeler,2013-08-13 17:40:00,
2013-08-13 13:46:00,66.9,66.0,29.73,ENE,71,1.0,4.0,98,0.07,,,0.19,oem by Ross Wheeler,2013-08-13 17:46:00,
2013-08-13 13:55:00,66.8,66.0,29.72,East,84,0.0,4.0,97,0.06,,,0.19,oem by Ross Wheeler,2013-08-13 17:55:00,
2013-08-13 14:01:00,66.8,66.0,29.72,East,80,0.0,3.0,96,0.05,,,0.19,oem by Ross Wheeler,2013-08-13 18:01:00,
2013-08-13 14:11:00,67.0,66.0,29.72,ENE,71,0.0,3.0,95,0.02,,,0.19,oem by Ross Wheeler,2013-08-13 18:11:00,
2013-08-13 14:16:00,67.3,65.0,29.73,ENE,71,1.0,3.0,93,0.01,,,0.19,oem by Ross Wheeler,2013-08-13 18:16:00,
2013-08-13 14:25:00,67.9,66.0,29.73,NE,40,2.0,2.0,92,0.00,,,0.19,oem by Ross Wheeler,2013-08-13 18:25:00,
2013-08-13 14:31:00,67.9,65.0,29.73,East,80,0.0,3.0,90,0.00,,,0.19,oem by Ross Wheeler,2013-08-13 18:31:00,
2013-08-13 14:41:00,68.1,65.0,29.73,East,82,0.0,5.0,91,0.00,,,0.19,oem by Ross Wheeler,2013-08-13 18:41:00,
2013-08-13 14:46:00,68.2,65.0,29.73,East,99,0.0,4.0,90,0.00,,,0.19,oem by Ross Wheeler,2013-08-13 18:46:00,
2013-08-13 14:56:00,68.1,65.0,29.73,ENE,72,3.0,4.0,88,0.00,,,0.19,oem by Ross Wheeler,2013-08-13 18:56:00,
2013-08-13 15:01:00,68.1,65.0,29.72,East,89,2.0,4.0,88,0.00,,,0.19,oem by Ross Wheeler,2013-08-13 19:01:00,
2013-08-13 15:11:00,68.5,65.0,29.72,ENE,75,0.0,7.0,89,0.00,,,0.19,oem by Ross Wheeler,2013-08-13 19:11:00,
2013-08-13 15:16:00,68.6,65.0,29.71,SE,125,1.0,7.0,88,0.00,,,0.19,oem by Ross Wheeler,2013-08-13 19:16:00,
2013-08-13 15:25:00,68.7,65.0,29.71,East,82,2.0,7.0,89,0.00,,,0.19,oem by Ross Wheeler,2013-08-13 19:25:00,
2013-08-13 15:31:00,68.8,66.0,29.71,ESE,121,0.0,8.0,90,0.00,,,0.19,oem by Ross Wheeler,2013-08-13 19:31:00,
2013-08-13 15:41:00,69.0,66.0,29.70,East,89,1.0,6.0,91,0.00,,,0.19,oem by Ross Wheeler,2013-08-13 19:41:00,
2013-08-13 15:46:00,69.1,67.0,29.71,East,95,0.0,5.0,92,0.00,,,0.19,oem by Ross Wheeler,2013-08-13 19:46:00,
2013-08-13 15:56:00,69.7,67.0,29.70,East,82,2.0,5.0,92,0.00,,,0.19,oem by Ross Wheeler,2013-08-13 19:56:00,
2013-08-13 16:01:00,69.8,67.0,29.70,ENE,74,3.0,7.0,92,0.00,,,0.19,oem by Ross Wheeler,2013-08-13 20:01:00,
2013-08-13 16:10:00,69.7,67.0,29.70,ESE,117,3.0,7.0,92,0.00,,,0.19,oem by Ross Wheeler,2013-08-13 20:10:00,
2013-08-13 16:16:00,70.0,68.0,29.70,ENE,65,6.0,7.0,92,0.00,,,0.19,oem by Ross Wheeler,2013-08-13 20:16:00,
2013-08-13 16:25:00,70.3,67.0,29.69,ESE,107,0.0,8.0,90,0.00,,,0.19,oem by Ross Wheeler,2013-08-13 20:25:00,
2013-08-13 16:31:00,70.5,67.0,29.69,East,93,1.0,8.0,89,0.00,,,0.19,oem by Ross Wheeler,2013-08-13 20:31:00,
2013-08-13 16:41:00,70.6,67.0,29.69,East,82,0.0,4.0,89,0.00,,,0.19,oem by Ross Wheeler,2013-08-13 20:41:00,
2013-08-13 16:46:00,70.5,67.0,29.69,ENE,78,0.0,4.0,89,0.00,,,0.19,oem by Ross Wheeler,2013-08-13 20:46:00,
2013-08-13 16:55:00,70.7,67.0,29.69,ENE,61,1.0,4.0,89,0.00,,,0.19,oem by Ross Wheeler,2013-08-13 20:55:00,
2013-08-13 17:01:00,70.8,67.0,29.69,ENE,75,0.0,3.0,88,0.00,,,0.19,oem by Ross Wheeler,2013-08-13 21:01:00,
2013-08-13 17:10:00,71.0,67.0,29.69,ENE,69,0.0,1.0,87,0.00,,,0.19,oem by Ross Wheeler,2013-08-13 21:10:00,
2013-08-13 17:16:00,70.9,67.0,29.69,ESE,105,2.0,3.0,86,0.00,,,0.19,oem by Ross Wheeler,2013-08-13 21:16:00,
2013-08-13 17:26:00,71.4,67.0,29.69,ENE,68,0.0,2.0,86,0.00,,,0.19,oem by Ross Wheeler,2013-08-13 21:26:00,
2013-08-13 17:31:00,72.0,67.0,29.69,ENE,60,0.0,1.0,85,0.00,,,0.19,oem by Ross Wheeler,2013-08-13 21:31:00,
2013-08-13 17:41:00,73.1,68.0,29.69,ENE,61,0.0,3.0,83,0.00,,,0.19,oem by Ross Wheeler,2013-08-13 21:41:00,
2013-08-13 17:46:00,73.2,67.0,29.69,ENE,71,0.0,2.0,82,0.00,,,0.19,oem by Ross Wheeler,2013-08-13 21:46:00,
2013-08-13 17:56:00,73.2,67.0,29.69,ENE,66,1.0,3.0,82,0.00,,,0.19,oem by Ross Wheeler,2013-08-13 21:56:00,
2013-08-13 18:01:00,73.2,67.0,29.69,ENE,61,3.0,3.0,81,0.00,,,0.19,oem by Ross Wheeler,2013-08-13 22:01:00,
2013-08-13 18:15:00,72.9,68.0,29.68,ENE,70,0.0,2.0,83,0.00,,,0.19,weatherlink.com 1.10,2013-08-13 22:15:00,
2013-08-13 18:21:00,73.3,68.0,29.69,NNE,15,0.0,1.0,83,0.00,,,0.19,oem by Ross Wheeler,2013-08-13 22:21:00,
2013-08-13 18:25:00,73.3,68.0,29.69,ENE,68,0.0,1.0,82,0.00,,,0.19,oem by Ross Wheeler,2013-08-13 22:25:00,
2013-08-13 18:31:00,73.6,68.0,29.69,ENE,68,0.0,1.0,83,0.00,,,0.19,oem by Ross Wheeler,2013-08-13 22:31:00,
2013-08-13 18:40:00,73.5,67.0,29.69,ENE,70,0.0,2.0,81,0.00,,,0.19,oem by Ross Wheeler,2013-08-13 22:40:00,
2013-08-13 18:46:00,73.6,67.0,29.68,ENE,66,1.0,2.0,81,0.00,,,0.19,oem by Ross Wheeler,2013-08-13 22:46:00,
2013-08-13 18:55:00,73.2,67.0,29.68,East,84,0.0,1.0,82,0.00,,,0.19,oem by Ross Wheeler,2013-08-13 22:55:00,
2013-08-13 19:01:00,73.6,68.0,29.69,East,84,0.0,1.0,83,0.00,,,0.19,oem by Ross Wheeler,2013-08-13 23:01:00,
2013-08-13 19:10:00,74.3,68.0,29.69,East,84,0.0,0.0,81,0.00,,,0.19,oem by Ross Wheeler,2013-08-13 23:10:00,
2013-08-13 19:16:00,74.4,69.0,29.69,East,84,0.0,0.0,82,0.00,,,0.19,oem by Ross Wheeler,2013-08-13 23:16:00,
2013-08-13 19:26:00,73.7,68.0,29.69,East,84,0.0,0.0,83,0.00,,,0.19,oem by Ross Wheeler,2013-08-13 23:26:00,
2013-08-13 19:31:00,72.2,68.0,29.69,East,84,0.0,0.0,85,0.00,,,0.19,oem by Ross Wheeler,2013-08-13 23:31:00,
2013-08-13 19:40:00,70.5,67.0,29.69,East,84,0.0,0.0,89,0.00,,,0.19,oem by Ross Wheeler,2013-08-13 23:40:00,
2013-08-13 19:46:00,70.1,67.0,29.69,East,84,0.0,0.0,89,0.00,,,0.19,oem by Ross Wheeler,2013-08-13 23:46:00,
2013-08-13 19:55:00,68.8,66.0,29.69,East,84,0.0,1.0,91,0.00,,,0.19,oem by Ross Wheeler,2013-08-13 23:55:00,
2013-08-13 20:01:00,68.5,66.0,29.69,East,84,0.0,0.0,92,0.00,,,0.19,oem by Ross Wheeler,2013-08-14 00:01:00,
2013-08-13 20:10:00,67.9,66.0,29.68,East,84,0.0,0.0,93,0.00,,,0.19,oem by Ross Wheeler,2013-08-14 00:10:00,
2013-08-13 20:16:00,67.7,66.0,29.69,East,84,0.0,0.0,94,0.00,,,0.19,oem by Ross Wheeler,2013-08-14 00:16:00,
2013-08-13 20:25:00,67.3,66.0,29.69,East,83,0.0,0.0,94,0.00,,,0.19,oem by Ross Wheeler,2013-08-14 00:25:00,
2013-08-13 20:31:00,67.1,65.0,29.70,East,84,0.0,0.0,94,0.00,,,0.19,oem by Ross Wheeler,2013-08-14 00:31:00,
2013-08-13 20:40:00,66.8,65.0,29.70,East,84,0.0,0.0,95,0.00,,,0.19,oem by Ross Wheeler,2013-08-14 00:40:00,
2013-08-13 20:46:00,66.8,65.0,29.70,East,84,0.0,0.0,95,0.00,,,0.19,oem by Ross Wheeler,2013-08-14 00:46:00,
2013-08-13 20:55:00,66.7,65.0,29.70,East,84,0.0,0.0,95,0.00,,,0.19,oem by Ross Wheeler,2013-08-14 00:55:00,
2013-08-13 21:01:00,66.6,65.0,29.71,East,84,0.0,0.0,95,0.00,,,0.19,oem by Ross Wheeler,2013-08-14 01:01:00,
2013-08-13 21:10:00,66.4,65.0,29.71,East,84,0.0,0.0,96,0.00,,,0.19,oem by Ross Wheeler,2013-08-14 01:10:00,
2013-08-13 21:16:00,66.4,65.0,29.72,East,84,0.0,1.0,96,0.00,,,0.19,oem by Ross Wheeler,2013-08-14 01:16:00,
2013-08-13 21:25:00,66.4,65.0,29.72,East,84,0.0,1.0,96,0.00,,,0.19,oem by Ross Wheeler,2013-08-14 01:25:00,
2013-08-13 21:31:00,66.5,65.0,29.72,SW,224,0.0,1.0,96,0.00,,,0.19,oem by Ross Wheeler,2013-08-14 01:31:00,
2013-08-13 21:40:00,66.5,65.0,29.72,SW,224,0.0,0.0,96,0.00,,,0.19,oem by Ross Wheeler,2013-08-14 01:40:00,
2013-08-13 21:46:00,66.4,65.0,29.72,SW,224,0.0,0.0,96,0.00,,,0.19,oem by Ross Wheeler,2013-08-14 01:46:00,
2013-08-13 21:55:00,66.2,65.0,29.72,SW,224,0.0,0.0,96,0.00,,,0.19,oem by Ross Wheeler,2013-08-14 01:55:00,
2013-08-13 22:01:00,66.0,65.0,29.72,SW,224,0.0,1.0,96,0.00,,,0.19,oem by Ross Wheeler,2013-08-14 02:01:00,
2013-08-13 22:10:00,65.9,65.0,29.71,SW,226,0.0,1.0,97,0.00,,,0.19,oem by Ross Wheeler,2013-08-14 02:10:00,
2013-08-13 22:16:00,65.9,65.0,29.71,SW,226,0.0,0.0,97,0.00,,,0.19,oem by Ross Wheeler,2013-08-14 02:16:00,
2013-08-13 22:25:00,66.0,65.0,29.71,SW,226,0.0,0.0,97,0.00,,,0.19,oem by Ross Wheeler,2013-08-14 02:25:00,
2013-08-13 22:31:00,66.0,65.0,29.71,SW,226,0.0,0.0,97,0.00,,,0.19,oem by Ross Wheeler,2013-08-14 02:31:00,
2013-08-13 22:41:00,65.9,65.0,29.71,SW,226,0.0,0.0,97,0.00,,,0.19,oem by Ross Wheeler,2013-08-14 02:41:00,
2013-08-13 22:46:00,65.8,65.0,29.70,SW,226,0.0,0.0,97,0.00,,,0.19,oem by Ross Wheeler,2013-08-14 02:46:00,
2013-08-13 22:55:00,65.6,65.0,29.71,SW,226,0.0,0.0,97,0.00,,,0.19,oem by Ross Wheeler,2013-08-14 02:55:00,
2013-08-13 23:01:00,65.6,65.0,29.71,SW,226,0.0,0.0,97,0.00,,,0.19,oem by Ross Wheeler,2013-08-14 03:01:00,
2013-08-13 23:10:00,65.8,65.0,29.71,SW,229,0.0,1.0,98,0.00,,,0.19,oem by Ross Wheeler,2013-08-14 03:10:00,
2013-08-13 23:16:00,65.9,65.0,29.71,SW,230,0.0,1.0,98,0.00,,,0.19,oem by Ross Wheeler,2013-08-14 03:16:00,
2013-08-13 23:25:00,66.2,66.0,29.70,SW,222,0.0,1.0,98,0.00,,,0.19,oem by Ross Wheeler,2013-08-14 03:25:00,
2013-08-13 23:31:00,66.4,66.0,29.70,SW,233,0.0,1.0,98,0.00,,,0.19,oem by Ross Wheeler,2013-08-14 03:31:00,
2013-08-13 23:41:00,66.5,66.0,29.70,SW,236,0.0,1.0,98,0.00,,,0.19,oem by Ross Wheeler,2013-08-14 03:41:00,
2013-08-13 23:46:00,66.5,66.0,29.71,WSW,243,0.0,1.0,97,0.00,,,0.19,oem by Ross Wheeler,2013-08-14 03:46:00,
2013-08-13 23:55:00,66.6,66.0,29.70,SSW,204,0.0,2.0,98,0.00,,,0.19,oem by Ross Wheeler,2013-08-14 03:55:00,